Mullan Pass, ID

7:43 AM PDT on October 20, 2019 (GMT -0700)
Mullan Pass

Weather History for KMLP - August, 2019

Change the Weather History Date:

Saturday, August 3, 2019

  Actual Average (WUND) Record (WUND)
Temperature  
Mean Temperature 62 °F -  
Max Temperature 71 °F - - (-1)
Min Temperature 54 °F - - (-1)
Degree Days  
Heating Degree Days 4    
Growing Degree Days 12 (Base 50)    
Moisture  
Dew Point 43 °F    
Average Humidity 54    
Maximum Humidity 75    
Minimum Humidity 39    
Precipitation  
Precipitation 0.00 in - - ()
Sea Level Pressure  
Sea Level Pressure 30.02 in    
Wind  
Wind Speed 4 mph (WSW)    
Max Wind Speed 8 mph    
Max Gust Speed -    
Visibility 10 miles    
Events      
Averages and records for this station are not official NWS values.
T = Trace of Precipitation, MM = Missing Value Source: NWS Daily Summary

Daily Weather History Graph

Daily Weather History Graph

Search for Another Location

Airport or City:

Astronomy

Aug. 03, 2019 Rise Set
Actual Time 5:23 AM PDT 8:13 PM PDT
Civil Twilight 4:47 AM PDT 8:49 PM PDT
Nautical Twilight 4:01 AM PDT 9:34 PM PDT
Astronomical Twilight 3:07 AM PDT 10:28 PM PDT
Moon 8:31 AM PDT (8/3) 10:08 PM PDT (8/3)
Length of Visible Light 16h 01m
Length of Day
14h 50m
Waxing Crescent, 10% of the Moon is Illuminated
Aug 3
Waxing Crescent
Aug 7
First Quarter
Aug 15
Full
Aug 23
Last Quarter
Aug 30
New

Hourly Weather History & Observations

Time (PDT) Temp. Dew Point Humidity Pressure Visibility Wind Dir Wind Speed Gust Speed Precip Events Conditions
12:53 AM 57.9 °F 42.1 °F 56% 29.96 in 10.0 mi SW 8.1 mph - N/A   Clear
1:53 AM 57.0 °F 42.1 °F 57% 29.96 in 10.0 mi SSW 5.8 mph - N/A   Partly Cloudy
2:53 AM 55.9 °F 43.0 °F 62% 29.96 in 10.0 mi SW 6.9 mph - N/A   Clear
3:53 AM 55.9 °F 45.0 °F 67% 29.95 in 10.0 mi Variable 4.6 mph - N/A   Scattered Clouds
4:53 AM 55.9 °F 45.0 °F 67% 29.95 in 10.0 mi Variable 5.8 mph - N/A   Overcast
5:53 AM 54.0 °F 46.0 °F 75% 29.98 in 10.0 mi Calm Calm - N/A   Overcast
6:53 AM 55.0 °F 45.0 °F 69% 29.99 in 10.0 mi Variable 4.6 mph - N/A   Partly Cloudy
7:53 AM 55.9 °F 45.0 °F 67% 30.00 in 10.0 mi Variable 3.5 mph - N/A   Scattered Clouds
8:10 AM 55.9 °F 45.0 °F 67% 30.27 in 10.0 mi Calm Calm - N/A   Mostly Cloudy
8:53 AM 57.0 °F 45.0 °F 64% 30.01 in 10.0 mi Calm Calm - N/A   Overcast
9:53 AM 57.9 °F 46.0 °F 65% 30.01 in 10.0 mi Calm Calm - N/A   Mostly Cloudy
10:30 AM 61.0 °F 46.0 °F 58% 30.27 in 10.0 mi Variable 4.6 mph - N/A   Mostly Cloudy
10:46 AM 61.0 °F 46.9 °F 60% 30.27 in 10.0 mi Calm Calm - N/A   Mostly Cloudy
10:53 AM 62.1 °F 46.0 °F 56% 30.00 in 10.0 mi Variable 3.5 mph - N/A   Mostly Cloudy
11:00 AM 60.1 °F 45.0 °F 57% 30.27 in 10.0 mi Calm Calm - N/A   Scattered Clouds
11:53 AM 64.9 °F 46.0 °F 50% 29.99 in 10.0 mi Variable 3.5 mph - N/A   Mostly Cloudy
12:53 PM 66.0 °F 45.0 °F 47% 29.99 in 10.0 mi Calm Calm - N/A   Partly Cloudy
1:53 PM 69.1 °F 45.0 °F 42% 29.97 in 10.0 mi Variable 3.5 mph - N/A   Clear
2:53 PM 69.1 °F 43.0 °F 39% 29.96 in 10.0 mi Variable 4.6 mph - N/A   Partly Cloudy
3:53 PM 68.0 °F 43.0 °F 40% 29.96 in 10.0 mi Variable 3.5 mph - N/A   Partly Cloudy
4:53 PM 69.1 °F 43.0 °F 39% 29.95 in 10.0 mi Calm Calm - N/A   Partly Cloudy
5:53 PM 66.9 °F 43.0 °F 42% 29.96 in 10.0 mi Variable 3.5 mph - N/A   Clear
6:53 PM 64.0 °F 42.1 °F 45% 29.96 in 10.0 mi Variable 4.6 mph - N/A   Clear
7:53 PM 61.0 °F 42.1 °F 50% 29.97 in 10.0 mi Variable 3.5 mph - N/A   Clear
8:53 PM 59.0 °F 39.0 °F 48% 29.98 in 10.0 mi Calm Calm - N/A   Clear
9:53 PM 59.0 °F 37.9 °F 46% 29.97 in 10.0 mi WNW 3.5 mph - N/A   Clear
10:53 PM 57.9 °F 37.0 °F 46% 29.97 in 10.0 mi WNW 3.5 mph - N/A   Clear
11:53 PM 59.0 °F 36.0 °F 42% 29.96 in 10.0 mi Calm Calm - N/A   Clear